OBJECT S, 62393

Orbit data source: Space-Track

You're viewing an Uncataloged Satellite

Recently launched and/or uncataloged satellites may have evolving metadata. Metadata may include but not limited to: Owner, Maufacturer, Bus, Motor, and Mission.

OBJECT S, 62393 is a satellite in LEO that was launched on Sat, 21 Dec 2024 UTC via an FALCON 9 launch vehicle from the Air Force Western Test Range (AFWTR). Unknown objects in Earth's orbit typically refer to objects detected orbiting the Earth but have not yet been identified or cataloged. These objects could be anything from previously untracked satellites, spent rocket stages, debris from satellite collisions, or even natural meteoroids temporarily captured by Earth's gravity.

Loading next visibility...
Identifier
62393, 2024-247S
Orbit
LEO
Country
Flag of TBDTBD
Related business
None
Manufacturer
Unknown
Mission
Operational Commercial Communications
Bus & Motor
Unknown
Mass
Unknown
Launch date (UTC)
2024-12-21 (11 months ago)
Launch vehicle
FALCON 9
Launch site
Air Force Western Test Range (AFWTR)
Object type
Unknown
Shape & HBR
Box, 0.0 m
Radar Cross Section
0.004 m², Small (<0.1 m²)

Expand to show TLE details & history
Last TLE update: 2 days ago

TLE from 2 days ago
0 OBJECT S
1 62393U 24247S   25337.91147551  .00084580  00000-0  19174-2 0  9994
2 62393  44.9766 259.6224 0006214 105.6739 254.4836 15.42154252 53321
Epoch: 2025-12-03T21:52Z
TLE epoch observation values (Epoch: 2025-12-03T21:52:31.484Z)
Latitude
0.00006°
Longitude
-141.4842°
Altitude
440.884 km
Speed
7.649 km/s
True Right ascension
17h 18m 29s
True Declination
0° 00' 00"
Sunlit
Object was in daylight at epoch
Visualization orbit readout
Latitude
Unknown
Longitude
Unknown
Altitude
Unknown
Speed
Unknown
Apparent Right ascension
Unknown
Apparent Declination
Unknown
Sunlit
N/A
Visualization observer readout
Local Sidereal Time
13:20:33
Azimuth
Unknown
Elevation
Unknown
Doppler factor
Unknown
Orbital elements
Apogee altitude
445.614 km
Perigee altitude
437.138 km
Semi-major axis
6,819.513 km
Eccentricity
0.00062
Inclination
44.9766°
RAAN
259.6224°
Arg. of periapsis
105.6739°
True anomaly
254.415°
Mean anomaly
254.4836°
Eccentric anomaly
254.4493°
Mean motion
3.85401 °/min
Orbital period
93.41 mins
BSTAR
0.0019174
Loading maneuver chart data...
Computing Atmospheric mass density...
Loading historical data...
Loading historical data...
Loading historical data...
Loading historical data...
Loading historical data...
Loading historical data...
Loading historical data...

Documentation

Showing up to 5 results
|